GW4471 Weather Reports


time (UTC)temp
C
wind
direction
speed
KPH
gust
KPH
rain 1hr
cm
rain 24hr
cm
rain mn
cm
humidity
%
barometer
mb
20260508090418 12 27 4.8 6.4 0.00 0.00 0.00 77 1017.3
20260508085417 11 50 1.6 3.2 0.00 0.00 0.00 78 1017.2
20260508084417 11 342 3.2 4.8 0.00 0.00 0.00 79 1017.3
20260508083418 11 95 1.6 3.2 0.00 0.00 0.00 79 1017.1
20260508082418 11 95 3.2 4.8 0.00 0.00 0.00 79 1017.0
20260508081417 11 27 1.6 3.2 0.00 0.00 0.00 80 1016.9
20260508080417 11 140 3.2 3.2 0.00 0.00 0.00 79 1017.1
20260508075417 11 0.0 1.6 0.00 0.00 0.00 81 1017.1
20260508073416 10 0.0 0.0 0.00 0.00 0.00 83 1017.1
20260508071416 10 162 1.6 1.6 0.00 0.00 0.00 85 1016.7
20260508070418 10 95 1.6 3.2 0.00 0.00 0.00 86 1016.6
20260508065418 9 0.0 0.0 0.00 0.00 0.00 88 1016.7
20260508064417 9 0.0 0.0 0.00 0.00 0.00 88 1016.5
20260508063417 8 0.0 0.0 0.00 0.00 0.00 89 1016.5
20260508062417 8 0.0 1.6 0.00 0.00 0.00 89 1016.4
20260508060417 8 0.0 1.6 0.00 0.00 0.00 89 1016.1
20260508055417 8 0.0 0.0 0.00 0.00 0.00 89 1016.2
20260508054416 7 0.0 0.0 0.00 0.00 0.00 89 1016.0
20260508053417 7 0.0 0.0 0.00 0.00 0.00 88 1015.9
20260508052417 6 0.0 0.0 0.00 0.00 0.00 88 1015.8
20260508051417 6 0.0 0.0 0.00 0.00 0.00 87 1015.9
20260508045416 6 0.0 0.0 0.00 0.00 0.00 86 1015.7
20260508044416 6 0.0 0.0 0.00 0.00 0.00 86 1015.7
20260508043417 6 0.0 0.0 0.00 0.00 0.00 86 1015.7
20260508041416 6 0.0 0.0 0.00 0.00 0.00 85 1015.6
20260508040417 6 0.0 0.0 0.00 0.00 0.00 85 1015.6
20260508035416 6 0.0 0.0 0.00 0.00 0.00 84 1015.6
20260508034416 7 0.0 0.0 0.00 0.00 0.00 84 1015.5
20260508033417 7 0.0 0.0 0.00 0.00 0.00 84 1015.4
20260508032416 7 0.0 0.0 0.00 0.00 0.00 84 1015.5
20260508030417 7 0.0 0.0 0.00 0.00 0.00 83 1015.5
20260508025417 7 0.0 0.0 0.00 0.00 0.00 81 1015.5
20260508024417 7 0.0 0.0 0.00 0.00 0.00 81 1015.5
20260508023416 7 0.0 0.0 0.00 0.00 0.00 80 1015.5
20260508022416 7 0.0 0.0 0.00 0.00 0.00 80 1015.5
20260508021417 8 0.0 0.0 0.00 0.00 0.00 80 1015.5
20260508020417 8 0.0 0.0 0.00 0.00 0.00 79 1015.5
20260508015416 8 0.0 0.0 0.00 0.00 0.00 78 1015.5
20260508014417 8 0.0 0.0 0.00 0.00 0.00 77 1015.6
20260508013416 8 0.0 0.0 0.00 0.00 0.00 77 1015.6
20260508012417 9 0.0 0.0 0.00 0.00 0.00 77 1015.6
20260508011416 9 0.0 0.0 0.00 0.00 0.00 76 1015.5
20260508010416 10 0.0 0.0 0.00 0.00 0.00 76 1015.5
20260508005417 10 0.0 0.0 0.00 0.00 0.00 75 1015.4
20260508004416 10 0.0 1.6 0.00 0.00 0.00 75 1015.5
20260508002417 10 0.0 0.0 0.00 0.00 0.00 75 1015.6
20260508001416 10 0.0 1.6 0.00 0.00 0.00 75 1015.6
20260508000416 10 117 1.6 4.8 0.00 0.00 0.00 74 1015.7
20260507235416 10 0.0 0.0 0.00 0.00 0.00 74 1015.7
20260507233416 10 72 1.6 3.2 0.00 0.00 0.00 73 1015.6
20260507231417 10 0.0 1.6 0.00 0.00 0.00 73 1015.5
20260507225417 10 95 1.6 3.2 0.00 0.00 0.00 72 1015.5
20260507223416 11 0.0 1.6 0.00 0.00 0.00 72 1015.3
20260507222417 11 140 3.2 6.4 0.00 0.00 0.00 72 1015.4
20260507221417 11 185 3.2 4.8 0.00 0.00 0.00 71 1015.4
20260507220416 11 207 1.6 3.2 0.00 0.00 0.00 71 1015.4
20260507215416 11 140 3.2 4.8 0.00 0.00 0.00 71 1015.5
20260507214416 11 50 3.2 6.4 0.00 0.00 0.00 71 1015.5
20260507213416 11 50 1.6 1.6 0.00 0.00 0.00 70 1015.5
20260507212417 11 162 4.8 11.3 0.00 0.00 0.00 70 1015.5
20260507211416 11 95 4.8 11.3 0.00 0.00 0.00 69 1015.5
20260507210416 11 117 1.6 3.2 0.00 0.00 0.00 69 1015.4
20260507205416 11 72 3.2 9.7 0.00 0.00 0.00 68 1015.2
20260507204416 11 140 6.4 8.0 0.00 0.00 0.00 67 1015.3
20260507202416 12 72 1.6 3.2 0.00 0.00 0.00 64 1015.1
20260507200416 12 140 3.2 6.4 0.00 0.00 0.00 62 1015.0
20260507195417 12 162 1.6 3.2 0.00 0.00 0.00 62 1014.9
20260507194415 12 117 3.2 6.4 0.00 0.00 0.00 62 1014.9
20260507193416 12 72 1.6 1.6 0.00 0.00 0.00 61 1014.8
20260507192416 12 117 3.2 9.7 0.00 0.00 0.00 61 1014.8
20260507191416 12 162 1.6 3.2 0.00 0.00 0.00 61 1014.7
20260507190416 12 162 1.6 3.2 0.00 0.00 0.00 61 1014.7
20260507185416 12 50 1.6 4.8 0.00 0.00 0.00 60 1014.7
20260507184416 12 117 3.2 4.8 0.00 0.00 0.00 60 1014.4
20260507183416 12 50 1.6 3.2 0.00 0.00 0.00 59 1014.5
20260507182416 12 117 4.8 12.9 0.00 0.00 0.00 59 1014.3
20260507181416 13 185 1.6 9.7 0.00 0.00 0.00 58 1014.4
20260507180415 13 185 1.6 11.3 0.00 0.00 0.00 59 1014.5
20260507175416 13 140 3.2 6.4 0.00 0.00 0.00 58 1014.4
20260507174415 13 50 4.8 8.0 0.00 0.00 0.00 58 1014.5
20260507172415 13 72 3.2 4.8 0.00 0.00 0.00 56 1014.5
20260507171416 13 5 1.6 3.2 0.00 0.00 0.00 57 1014.5
20260507165415 13 117 3.2 8.0 0.00 0.00 0.00 58 1014.6
20260507164415 12 207 1.6 4.8 0.00 0.00 0.00 59 1014.6
20260507163416 12 0.0 1.6 0.00 0.00 0.00 59 1014.5
20260507162415 12 140 3.2 6.4 0.00 0.00 0.00 59 1014.6
20260507161416 12 162 4.8 12.9 0.00 0.00 0.00 59 1014.7
20260507160417 12 162 4.8 9.7 0.00 0.00 0.00 59 1014.7
20260507155418 12 185 1.6 4.8 0.00 0.00 0.00 60 1014.6
20260507154418 12 0.0 1.6 0.00 0.00 0.00 60 1014.7
20260507152418 12 0.0 1.6 0.00 0.00 0.00 61 1014.9
20260507151418 12 72 3.2 6.4 0.00 0.00 0.00 60 1015.0
20260507145417 12 0.0 0.0 0.00 0.00 0.00 60 1015.0
20260507144417 12 50 1.6 3.2 0.00 0.00 0.00 60 1015.2
20260507141417 13 185 4.8 11.3 0.00 0.00 0.00 60 1015.4
20260507140418 13 185 3.2 4.8 0.00 0.00 0.00 60 1015.5
20260507135418 13 140 3.2 6.4 0.00 0.00 0.00 62 1015.5
20260507133418 13 72 3.2 6.4 0.00 0.00 0.00 63 1015.6
20260507132418 13 185 4.8 9.7 0.00 0.00 0.00 64 1015.7
20260507131417 12 140 3.2 6.4 0.00 0.00 0.00 63 1015.7
20260507130418 12 185 4.8 11.3 0.00 0.00 0.00 64 1015.7
20260507125418 12 72 3.2 4.8 0.00 0.00 0.00 66 1015.7
20260507124418 12 185 6.4 11.3 0.00 0.00 0.00 67 1015.8
20260507123418 12 50 1.6 3.2 0.00 0.00 0.00 68 1015.9
20260507122417 12 140 3.2 6.4 0.00 0.00 0.00 69 1015.8
20260507121417 11 230 1.6 3.2 0.00 0.00 0.00 71 1015.9
20260507120417 11 185 3.2 4.8 0.00 0.00 0.00 72 1015.9
20260507115418 11 185 1.6 4.8 0.00 0.00 0.00 72 1016.1
20260507113418 10 117 4.8 6.4 0.00 0.00 0.00 73 1016.1
20260507112418 10 140 3.2 6.4 0.00 0.00 0.00 74 1016.1
20260507111418 10 185 3.2 6.4 0.00 0.00 0.00 74 1016.2
20260507110417 10 95 1.6 3.2 0.00 0.00 0.00 75 1016.2
20260507105418 10 185 1.6 3.2 0.00 0.00 0.00 74 1016.3
20260507104417 10 162 4.8 8.0 0.00 0.00 0.00 74 1016.3
20260507101417 10 0.0 3.2 0.00 0.00 0.00 78 1016.1
20260507100417 10 140 1.6 3.2 0.00 0.00 0.00 77 1016.0
20260507095417 9 207 3.2 8.0 0.00 0.00 0.00 78 1016.2
20260507092417 8 162 4.8 11.3 0.00 0.00 0.00 83 1016.2
20260507091359 8 162 1.6 3.2 0.00 0.00 0.00 84 1016.3